Retour au catalogue

THORAD DELTA 1 DEB

ActifLEO
NORAD 18693·DEBRIS·🇺🇸 United States

Lancé Nov 15, 1974 depuis Vandenberg Space Force Base

Loading…

Prochains Passages (prochaines 24 heures)

TLE

VieillissantSource: Space-Track

Époque: Sep 12, 2026, 09:41 UTC

1 18693U 74089FA  26255.40390200 -.00001204  00000-0 -35937-2 0  9991
2 18693 101.6393 213.2501 0197252 288.9382 225.2959 12.98114350792547

Suivez THORAD DELTA 1 DEB en temps réel avec AllMySat

Download on the App Store